Date,TemperatureHighF,TemperatureAvgF,TemperatureLowF,DewpointHighF,DewpointAvgF,DewpointLowF,HumidityHigh,HumidityAvg,HumidityLow,PressureMaxIn,PressureMinIn,WindSpeedMaxMPH,WindSpeedAvgMPH,GustSpeedMaxMPH,PrecipitationSumIn
2014-1-1,20,16,12,-100,-100,-100,0,0,100,0.00,40.00,0,-999,0,0.01
2014-1-2,25,18,14,-100,-100,-100,0,0,100,0.00,40.00,0,-999,0,0.01
2014-1-3,23,22,20,-100,-100,-100,0,0,100,0.00,40.00,0,-999,0,0.00
2014-1-4,18,9,1,-100,-100,-100,0,0,100,0.00,40.00,0,-999,0,0.00
2014-1-5,-1,-3,-4,-100,-100,-100,0,0,100,0.00,40.00,0,-999,0,0.00
2014-1-6,17,13,1,-100,-100,-100,0,0,100,0.00,40.00,0,-999,0,0.02
2014-1-7,27,21,17,-100,-100,-100,0,0,100,0.00,40.00,0,-999,0,0.01
2014-1-8,21,17,15,-100,-100,-100,0,0,100,0.00,40.00,0,-999,0,0.01
2014-1-9,15,15,15,-100,-100,-100,0,0,100,0.00,40.00,0,-999,0,0.00
2014-1-10,14,7,4,-100,-100,-100,0,0,100,0.00,40.00,0,-999,0,0.02
2014-1-11,28,21,17,-100,-100,-100,0,0,100,0.00,40.00,0,-999,0,0.01
2014-1-12,22,16,8,-100,-100,-100,0,0,100,0.00,40.00,0,-999,0,0.01
2014-1-13,16,12,8,-100,-100,-100,0,0,100,0.00,40.00,0,-999,0,0.01
2014-1-14,18,16,14,-100,-100,-100,0,0,100,0.00,40.00,0,-999,0,0.01
2014-1-15,22,19,14,-100,-100,-100,0,0,100,0.00,40.00,0,-999,0,0.01
2014-1-16,22,17,14,-100,-100,-100,0,0,100,0.00,40.00,0,-999,0,0.01
2014-1-17,25,19,15,-100,-100,-100,0,0,100,0.00,40.00,0,-999,0,0.00
2014-1-18,27,21,16,-100,-100,-100,0,0,100,0.00,40.00,0,-999,0,0.00
2014-1-19,29,25,21,-100,-100,-100,0,0,100,0.00,40.00,0,-999,0,0.00
2014-1-20,26,22,15,-100,-100,-100,0,0,100,0.00,40.00,0,-999,0,0.00
2014-1-21,31,23,20,-100,-100,-100,0,0,100,0.00,40.00,0,-999,0,0.00
2014-1-22,26,21,17,-100,-100,-100,0,0,100,0.00,40.00,0,-999,0,0.00
2014-1-23,18,11,7,-100,-100,-100,0,0,100,0.00,40.00,0,-999,0,0.00
2014-1-24,27,20,15,-100,-100,-100,0,0,100,0.00,40.00,0,-999,0,0.00
2014-1-25,32,26,18,-100,-100,-100,0,0,100,0.00,40.00,0,-999,0,0.00
2014-1-26,27,23,17,-100,-100,-100,0,0,100,0.00,40.00,0,-999,0,0.00
2014-1-27,21,17,10,-100,-100,-100,0,0,100,0.00,40.00,0,-999,0,0.00
2014-1-28,11,11,11,-100,-100,-100,0,0,100,0.00,40.00,0,-999,0,0.00
2014-1-29,21,17,13,-100,-100,-100,0,0,100,0.00,40.00,0,-999,0,0.01
2014-1-30,21,20,17,-100,-100,-100,0,0,100,0.00,40.00,0,-999,0,0.03
2014-1-31,19,14,8,-100,-100,-100,0,0,100,0.00,40.00,0,-999,0,0.03
2014-2-1,11,6,1,-100,-100,-100,0,0,100,0.00,40.00,0,-999,0,0.01
2014-2-2,17,5,-7,-100,-100,-100,0,0,100,0.00,40.00,0,-999,0,0.01
2014-2-3,17,11,8,-100,-100,-100,0,0,100,0.00,40.00,0,-999,0,0.01
2014-2-4,13,7,-4,-100,-100,-100,0,0,100,0.00,40.00,0,-999,0,0.01
2014-2-5,8,0,-8,-100,-100,-100,0,0,100,0.00,40.00,0,-999,0,0.01
2014-2-6,13,10,7,-100,-100,-100,0,0,100,0.00,40.00,0,-999,0,0.01
2014-2-7,18,15,13,-100,-100,-100,0,0,100,0.00,40.00,0,-999,0,0.02
2014-2-12,23,18,12,-100,-100,-100,0,0,100,0.00,40.00,0,-999,0,0.01
2014-2-13,29,25,23,-100,-100,-100,0,0,100,0.00,40.00,0,-999,0,0.01
2014-2-14,28,23,19,-100,-100,-100,0,0,100,0.00,40.00,0,-999,0,0.01
2014-2-15,33,31,29,-100,-100,-100,0,0,100,0.00,40.00,0,-999,0,0.01
2014-2-16,31,28,17,-100,-100,-100,0,0,100,0.00,40.00,0,-999,0,0.01
2014-2-17,30,21,10,-100,-100,-100,0,0,100,0.00,40.00,0,-999,0,0.00
2014-2-18,32,27,23,-100,-100,-100,0,0,100,0.00,40.00,0,-999,0,0.00
2014-2-19,29,24,19,-100,-100,-100,0,0,100,0.00,40.00,0,-999,0,0.00
2014-2-20,8,6,1,-100,-100,-100,0,0,100,0.00,40.00,0,-999,0,0.00
2014-2-21,19,14,7,-100,-100,-100,0,0,100,0.00,40.00,0,-999,0,0.00
2014-2-22,22,18,14,-100,-100,-100,0,0,100,0.00,40.00,0,-999,0,0.00
2014-2-23,28,22,18,-100,-100,-100,0,0,100,0.00,40.00,0,-999,0,0.00
2014-2-24,31,26,24,-100,-100,-100,0,0,100,0.00,40.00,0,-999,0,0.00
2014-2-25,36,29,26,-100,-100,-100,0,0,100,0.00,40.00,0,-999,0,0.01
2014-2-26,29,24,19,-100,-100,-100,0,0,100,0.00,40.00,0,-999,0,0.00
2014-2-27,30,27,24,-100,-100,-100,0,0,100,0.00,40.00,0,-999,0,0.00
2014-2-28,25,23,20,-100,-100,-100,0,0,100,0.00,40.00,0,-999,0,0.01
2014-3-1,28,26,22,-100,-100,-100,0,0,100,0.00,40.00,0,-999,0,0.01
2014-3-2,28,22,19,-100,-100,-100,0,0,100,0.00,40.00,0,-999,0,0.02
2014-3-3,30,25,21,-100,-100,-100,0,0,100,0.00,40.00,0,-999,0,0.02
2014-3-4,32,26,19,-100,-100,-100,0,0,100,0.00,40.00,0,-999,0,0.01
2014-3-5,28,21,15,-100,-100,-100,0,0,100,0.00,40.00,0,-999,0,0.01
2014-3-6,38,27,20,-100,-100,-100,0,0,100,0.00,40.00,0,-999,0,0.01
2014-3-7,26,22,11,-100,-100,-100,0,0,100,0.00,40.00,0,-999,0,0.01
2014-3-8,30,19,11,-100,-100,-100,0,0,100,0.00,40.00,0,-999,0,0.01
2014-3-9,41,32,19,-100,-100,-100,0,0,100,0.00,40.00,0,-999,0,0.00
2014-3-10,40,32,24,-100,-100,-100,0,0,100,0.00,40.00,0,-999,0,0.01
2014-3-11,30,18,4,-100,-100,-100,0,0,100,0.00,40.00,0,-999,0,0.00
2014-3-12,32,17,4,-100,-100,-100,0,0,100,0.00,40.00,0,-999,0,0.00
2014-3-13,32,25,15,-100,-100,-100,0,0,100,0.00,40.00,0,-999,0,0.00
2014-3-14,34,26,12,-100,-100,-100,0,0,100,0.00,40.00,0,-999,0,0.00
2014-3-15,23,19,15,-100,-100,-100,0,0,100,0.00,40.00,0,-999,0,0.01
2014-3-16,33,26,15,-100,-100,-100,0,0,100,0.00,40.00,0,-999,0,0.00
2014-3-17,33,29,26,-100,-100,-100,0,0,100,0.00,40.00,0,-999,0,0.00
2014-3-18,22,13,8,-100,-100,-100,0,0,100,0.00,40.00,0,-999,0,0.00
2014-3-19,29,15,5,-100,-100,-100,0,0,100,0.00,40.00,0,-999,0,0.00
2014-3-20,32,25,18,-100,-100,-100,0,0,100,0.00,40.00,0,-999,0,0.00
2014-3-21,37,26,22,-100,-100,-100,0,0,100,0.00,40.00,0,-999,0,0.00
2014-3-22,25,19,9,-100,-100,-100,0,0,100,0.00,40.00,0,-999,0,0.00
2014-3-23,31,20,8,-100,-100,-100,0,0,100,0.00,40.00,0,-999,0,0.00
2014-3-26,33,28,24,-100,-100,-100,0,0,100,0.00,40.00,0,-999,0,0.01
2014-3-27,27,21,17,-100,-100,-100,0,0,100,0.00,40.00,0,-999,0,0.01
2014-3-28,25,20,11,-100,-100,-100,0,0,100,0.00,40.00,0,-999,0,0.01
2014-3-29,34,29,17,-100,-100,-100,0,0,100,0.00,40.00,0,-999,0,0.01
2014-3-30,35,30,23,-100,-100,-100,0,0,100,0.00,40.00,0,-999,0,0.01
2014-3-31,24,20,13,-100,-100,-100,0,0,100,0.00,40.00,0,-999,0,0.02
2014-4-1,28,24,19,-100,-100,-100,0,0,100,0.00,40.00,0,-999,0,0.01
2014-4-2,24,20,13,-100,-100,-100,0,0,100,0.00,40.00,0,-999,0,0.01
2014-4-3,24,17,10,-100,-100,-100,0,0,100,0.00,40.00,0,-999,0,0.01
2014-4-4,32,21,11,-100,-100,-100,0,0,100,0.00,40.00,0,-999,0,0.00
2014-4-5,35,23,15,-100,-100,-100,0,0,100,0.00,40.00,0,-999,0,0.00
2014-4-6,27,22,18,-100,-100,-100,0,0,100,0.00,40.00,0,-999,0,0.00
2014-4-7,27,23,19,-100,-100,-100,0,0,100,0.00,40.00,0,-999,0,0.00
2014-4-8,41,34,24,-100,-100,-100,0,0,100,0.00,40.00,0,-999,0,0.02
2014-4-9,46,38,29,-100,-100,-100,0,0,100,0.00,40.00,0,-999,0,0.01
2014-4-10,44,39,33,-100,-100,-100,0,0,100,0.00,40.00,0,-999,0,0.00
2014-4-11,46,37,29,-100,-100,-100,0,0,100,0.00,40.00,0,-999,0,0.01
2014-4-12,47,39,31,-100,-100,-100,0,0,100,0.00,40.00,0,-999,0,0.00
2014-4-13,31,28,20,-100,-100,-100,0,0,100,0.00,40.00,0,-999,0,0.02
2014-4-14,23,14,4,-100,-100,-100,0,0,100,0.00,40.00,0,-999,0,0.01
2014-4-15,34,30,18,-100,-100,-100,0,0,100,0.00,40.00,0,-999,0,0.01
2014-4-16,33,26,20,-100,-100,-100,0,0,100,0.00,40.00,0,-999,0,0.00
2014-4-17,40,31,17,-100,-100,-100,0,0,100,0.00,40.00,0,-999,0,0.00
2014-4-18,47,38,31,-100,-100,-100,0,0,100,0.00,40.00,0,-999,0,0.00
2014-4-19,43,36,31,-100,-100,-100,0,0,100,0.00,40.00,0,-999,0,0.00
2014-4-20,45,37,31,-100,-100,-100,0,0,100,0.00,40.00,0,-999,0,0.00
2014-4-21,45,38,29,-100,-100,-100,0,0,100,0.00,40.00,0,-999,0,0.00
2014-4-22,49,42,34,-100,-100,-100,0,0,100,0.00,40.00,0,-999,0,0.00
2014-4-23,39,30,19,-100,-100,-100,0,0,100,0.00,40.00,0,-999,0,0.01
2014-4-24,38,26,15,-100,-100,-100,0,0,100,0.00,40.00,0,-999,0,0.01
2014-4-25,48,43,35,-100,-100,-100,0,0,100,0.00,40.00,0,-999,0,0.00
2014-4-26,39,34,25,-100,-100,-100,0,0,100,0.00,40.00,0,-999,0,0.01
2014-4-27,26,22,18,-100,-100,-100,0,0,100,0.00,40.00,0,-999,0,0.01
2014-4-28,24,18,14,-100,-100,-100,0,0,100,0.00,40.00,0,-999,0,0.00
2014-4-29,23,18,15,-100,-100,-100,0,0,100,0.00,40.00,0,-999,0,0.01
2014-4-30,26,20,14,-100,-100,-100,0,0,100,0.00,40.00,0,-999,0,0.01
2014-5-1,35,24,11,-100,-100,-100,0,0,100,0.00,40.00,0,-999,0,0.01
2014-5-2,46,38,28,-100,-100,-100,0,0,100,0.00,40.00,0,-999,0,0.00
2014-5-3,51,43,35,-100,-100,-100,0,0,100,0.00,40.00,0,-999,0,0.00
2014-5-4,50,45,39,-100,-100,-100,0,0,100,0.00,40.00,0,-999,0,0.00
2014-5-5,49,46,38,-100,-100,-100,0,0,100,0.00,40.00,0,-999,0,0.00
2014-5-6,45,40,34,-100,-100,-100,0,0,100,0.00,40.00,0,-999,0,0.00
2014-5-13,27,20,16,-100,-100,-100,0,0,100,0.00,40.00,0,-999,0,0.01
2014-5-14,34,25,14,-100,-100,-100,0,0,100,0.00,40.00,0,-999,0,0.01
2014-5-15,40,34,27,-100,-100,-100,0,0,100,0.00,40.00,0,-999,0,0.01
2014-5-16,46,39,32,-100,-100,-100,0,0,100,0.00,40.00,0,-999,0,0.01
2014-5-17,51,43,33,-100,-100,-100,0,0,100,0.00,40.00,0,-999,0,0.00
2014-5-18,55,48,40,-100,-100,-100,0,0,100,0.00,40.00,0,-999,0,0.00
2014-5-19,52,46,40,-100,-100,-100,0,0,100,0.00,40.00,0,-999,0,0.00
2014-5-20,52,45,35,-100,-100,-100,0,0,100,0.00,40.00,0,-999,0,0.00
2014-5-21,50,46,37,-100,-100,-100,0,0,100,0.00,40.00,0,-999,0,0.00
2014-5-22,53,43,34,-100,-100,-100,0,0,100,0.00,40.00,0,-999,0,0.00
2014-5-23,51,41,35,-100,-100,-100,0,0,100,0.00,40.00,0,-999,0,0.00
2014-5-24,48,39,31,-100,-100,-100,0,0,100,0.00,40.00,0,-999,0,0.00
2014-5-25,44,36,33,-100,-100,-100,0,0,100,0.00,40.00,0,-999,0,0.01
2014-5-26,50,41,30,-100,-100,-100,0,0,100,0.00,40.00,0,-999,0,0.01
2014-5-27,57,47,41,-100,-100,-100,0,0,100,0.00,40.00,0,-999,0,0.00
2014-5-28,62,51,41,-100,-100,-100,0,0,100,0.00,40.00,0,-999,0,0.00
2014-5-29,57,48,42,-100,-100,-100,0,0,100,0.00,40.00,0,-999,0,0.01
2014-5-30,49,42,38,-100,-100,-100,0,0,100,0.00,40.00,0,-999,0,0.01
2014-5-31,56,46,36,-100,-100,-100,0,0,100,0.00,40.00,0,-999,0,0.01
2014-6-1,53,47,41,-100,-100,-100,0,0,100,0.00,40.00,0,-999,0,0.01
2014-6-2,56,49,41,-100,-100,-100,0,0,100,0.00,40.00,0,-999,0,0.00
2014-6-3,56,49,43,-100,-100,-100,0,0,100,0.00,40.00,0,-999,0,0.00
2014-6-4,57,50,39,-100,-100,-100,0,0,100,0.00,40.00,0,-999,0,0.00
2014-6-5,56,51,44,-100,-100,-100,0,0,100,0.00,40.00,0,-999,0,0.00
2014-6-6,55,48,41,-100,-100,-100,0,0,100,0.00,40.00,0,-999,0,0.00
2014-6-7,58,48,39,-100,-100,-100,0,0,100,0.00,40.00,0,-999,0,0.00
2014-6-8,47,39,31,-100,-100,-100,0,0,100,0.00,40.00,0,-999,0,0.00
2014-6-9,49,38,25,-100,-100,-100,0,0,100,0.00,40.00,0,-999,0,0.01
2014-6-10,54,47,39,-100,-100,-100,0,0,100,0.00,40.00,0,-999,0,0.01
2014-6-11,53,48,40,-100,-100,-100,0,0,100,0.00,40.00,0,-999,0,0.01
2014-6-12,55,46,37,-100,-100,-100,0,0,100,0.00,40.00,0,-999,0,0.01
2014-6-13,57,50,41,-100,-100,-100,0,0,100,0.00,40.00,0,-999,0,0.01
2014-6-14,48,42,36,-100,-100,-100,0,0,100,0.00,40.00,0,-999,0,0.00
2014-6-15,51,42,33,-100,-100,-100,0,0,100,0.00,40.00,0,-999,0,0.01
2014-6-16,51,46,41,-100,-100,-100,0,0,100,0.00,40.00,0,-999,0,0.01
2014-6-17,55,48,41,-100,-100,-100,0,0,100,0.00,40.00,0,-999,0,0.01
2014-6-18,48,41,32,-100,-100,-100,0,0,100,0.00,40.00,0,-999,0,0.00
2014-6-19,51,40,32,-100,-100,-100,0,0,100,0.00,40.00,0,-999,0,0.01
2014-6-20,58,49,38,-100,-100,-100,0,0,100,0.00,40.00,0,-999,0,0.00
2014-6-21,60,51,45,-100,-100,-100,0,0,100,0.00,40.00,0,-999,0,0.01
2014-6-22,57,49,43,-100,-100,-100,0,0,100,0.00,40.00,0,-999,0,0.00
2014-6-23,60,48,42,-100,-100,-100,0,0,100,0.00,40.00,0,-999,0,0.00
2014-6-24,55,48,41,-100,-100,-100,0,0,100,0.00,40.00,0,-999,0,0.00
2014-6-25,63,54,43,-100,-100,-100,0,0,100,0.00,40.00,0,-999,0,0.02
2014-6-26,61,54,47,-100,-100,-100,0,0,100,0.00,40.00,0,-999,0,0.00
2014-6-27,52,44,40,-100,-100,-100,0,0,100,0.00,40.00,0,-999,0,0.00
2014-6-28,54,45,35,-100,-100,-100,0,0,100,0.00,40.00,0,-999,0,0.02
2014-6-29,63,56,45,-100,-100,-100,0,0,100,0.00,40.00,0,-999,0,0.01
2014-6-30,61,55,48,-100,-100,-100,0,0,100,0.00,40.00,0,-999,0,0.00
2014-7-1,60,52,40,-100,-100,-100,0,0,100,0.00,40.00,0,-999,0,0.00
2014-7-2,63,51,42,-100,-100,-100,0,0,100,0.00,40.00,0,-999,0,0.00
2014-7-3,64,56,48,-100,-100,-100,0,0,100,0.00,40.00,0,-999,0,0.00
2014-7-4,62,54,47,-100,-100,-100,0,0,100,0.00,40.00,0,-999,0,0.00
2014-7-5,64,54,47,-100,-100,-100,0,0,100,0.00,40.00,0,-999,0,0.01
2014-7-6,65,56,52,-100,-100,-100,0,0,100,0.00,40.00,0,-999,0,0.00
2014-7-7,66,58,49,-100,-100,-100,0,0,100,0.00,40.00,0,-999,0,0.02
2014-7-8,66,58,48,-100,-100,-100,0,0,100,0.00,40.00,0,-999,0,0.00
2014-7-9,63,53,48,-100,-100,-100,0,0,100,0.00,40.00,0,-999,0,0.00
2014-7-10,64,57,49,-100,0,200,0,0,100,0.00,40.00,0,0,0,0.00
2014-7-11,63,53,46,-100,0,200,0,0,100,0.00,40.00,0,0,0,0.01
2014-7-12,61,53,45,-100,0,200,0,0,100,0.00,40.00,0,0,0,0.00
2014-7-13,62,54,46,-100,0,200,0,0,100,0.00,40.00,0,0,0,0.01
2014-7-14,65,56,48,-100,0,200,0,0,100,0.00,40.00,0,0,0,0.01
2014-7-15,62,55,47,-100,0,200,0,0,100,0.00,40.00,0,0,0,0.01